This demonstration page uses our WeatherBlox Daily Observations layout. Learn more.

38.89511, -77.03637

Hourly Observations for June 29, 2020

Temp ( °F °C ) Dew Point ( °F °C ) Humidity (%) Winds ( mph kmh ) Pressure ( in mb ) Visibility ( mi km ) Precip ( " mm )
12:52 am 00:52 Cloudy 79 26.1 70 21.1 74 74 SW 3 6 29.78 1009 10 16.0934 0 0
1:52 am 01:52 Cloudy 80 26.7 68 20 67 67 NW 6 9 29.78 1009 10 16.0934 0 0
2:52 am 02:52 Partly Cloudy 79 26.1 68 20 69 69 NW 12 19 29.78 1009 10 16.0934 0 0
3:52 am 03:52 Mostly Clear 77 25 68 20 74 74 NNW 9 15 29.78 1009 10 16.0934 0 0
4:52 am 04:52 Mostly Cloudy 76 24.4 67 19.4 74 74 NNW 9 15 29.8 1009 10 16.0934 0 0
5:52 am 05:52 Partly Cloudy 76 24.4 66 18.9 72 72 NW 14 22 29.82 1010 10 16.0934 0 0
6:52 am 06:52 Partly Cloudy 76 24.4 66 18.9 72 72 NNW 13 20 29.85 1011 10 16.0934 0 0
7:52 am 07:52 Partly Cloudy 78 25.6 66 18.9 67 67 NNW 12 19 29.88 1012 10 16.0934 0 0
8:52 am 08:52 Mostly Sunny 82 27.8 65 18.3 56 56 N 13 20 29.88 1012 10 16.0934 0 0
9:52 am 09:52 Mostly Sunny 84 28.9 65 18.3 53 53 NNW 12 19 29.89 1012 10 16.0934 0 0
10:52 am 10:52 Mostly Sunny 86 30 63 17.2 46 46 NNW 14 22 29.89 1012 10 16.0934 0 0
11:52 am 11:52 Partly Cloudy 88 31.1 62 16.7 42 42 N 14 22 29.88 1012 10 16.0934 0 0
12:52 pm 12:52 Partly Cloudy 89 31.7 62 16.7 41 41 NNW 17 28 29.88 1012 10 16.0934 0 0
1:52 pm 13:52 Partly Cloudy 91 32.8 63 17.2 39 39 NNW 13 20 29.86 1011 10 16.0934 0 0
2:52 pm 14:52 Partly Cloudy 91 32.8 62 16.7 38 38 WNW 10 17 29.87 1011 10 16.0934 0 0
3:52 pm 15:52 Mostly Cloudy 90 32.2 61 16.1 38 38 N 10 17 29.86 1011 10 16.0934 0 0
4:52 pm 16:52 Mostly Cloudy 92 33.3 61 16.1 36 36 NNW 12 19 29.85 1011 10 16.0934 0 0
5:52 pm 17:52 Mostly Cloudy 92 33.3 60 15.6 34 34 N 13 20 29.84 1011 10 16.0934 0 0
6:52 pm 18:52 Mostly Cloudy 90 32.2 60 15.6 37 37 NNW 12 19 29.85 1011 10 16.0934 0 0
7:52 pm 19:52 Mostly Cloudy 87 30.6 59 15 39 39 NNW 10 17 29.86 1011 10 16.0934 0 0
8:52 pm 20:52 Partly Cloudy 86 30 60 15.6 42 42 NW 7 11 29.86 1011 10 16.0934 0 0
9:52 pm 21:52 Mostly Cloudy 85 29.4 61 16.1 45 45 NW 5 7 29.88 1012 10 16.0934 0 0
10:52 pm 22:52 Partly Cloudy 82 27.8 69 20.6 65 65 Calm 29.89 1012 10 16.0934 0 0
11:52 pm 23:52 Partly Cloudy 81 27.2 66 18.9 61 61 Calm 29.89 1012 10 16.0934 0 0

Powered by AerisWeather